This demonstration page uses our WeatherBlox Daily Observations layout. Learn more.

Left ArrowRight Arrow

31.84235, -102.49876

Hourly Observations for December 1, 2022

Temp ( °F °C ) Dew Point ( °F °C ) Humidity (%) Winds ( mph kmh ) Pressure ( in mb ) Visibility ( mi km ) Precip ( " mm )
2:53 am 02:53 Mostly Cloudy 38 3.3 24 -4.4 57 57 SE 9 15 30.24 1024 10 16 0.00 0.00
3:01 am 03:01 Partly Cloudy 38 3.3 24 -4.4 57 57 SE 10 17 30.33 1027 10 16 0.00 0.00
3:53 am 03:53 Clear 38 3.3 24 -4.4 57 57 SSE 9 15 30.23 1024 10 16 0.00 0.00
4:53 am 04:53 Clear 38 3.3 24 -4.4 57 57 ESE 7 11 30.22 1023 10 16 0.00 0.00
5:53 am 05:53 Clear 37 2.8 24 -4.4 59 59 SE 10 17 30.22 1023 10 16 0.00 0.00
6:53 am 06:53 Clear 37 2.8 24 -4.4 59 59 SE 8 13 30.24 1024 10 16 0.00 0.00
7:53 am 07:53 Sunny 36 2.2 25 -3.9 64 64 SE 8 13 30.24 1024 10 16 0.00 0.00
8:53 am 08:53 Sunny 40 4.4 25 -3.9 55 55 SSE 14 22 30.23 1024 10 16 0.00 0.00
9:53 am 09:53 Sunny 43 6.1 26 -3.3 51 51 S 14 22 30.24 1024 10 16 0.00 0.00
10:53 am 10:53 Sunny 47 8.3 28 -2.2 47 47 S 13 20 30.23 1024 10 16 0.00 0.00
11:53 am 11:53 Sunny 50 10 30 -1.1 46 46 S 13 20 30.19 1022 10 16 0.00 0.00
12:53 pm 12:53 Sunny 53 11.7 32 0 44 44 S 13 20 30.14 1021 10 16 0.00 0.00
1:53 pm 13:53 Sunny 55 12.8 33 0.6 43 43 S 13 20 30.09 1019 10 16 0.00 0.00
2:53 pm 14:53 Sunny 58 14.4 36 2.2 44 44 SSW 12 19 30.06 1018 10 16 0.00 0.00
3:53 pm 15:53 Sunny 59 15 37 2.8 44 44 S 10 17 30.04 1017 10 16 0.00 0.00
4:53 pm 16:53 Sunny 59 15 37 2.8 44 44 S 9 15 30.04 1017 10 16 0.00 0.00
5:53 pm 17:53 Clear 55 12.8 37 2.8 51 51 SSE 9 15 30.05 1018 10 16 0.00 0.00
7:53 pm 19:53 Clear 52 11.1 38 3.3 59 59 S 10 17 30.06 1018 10 16 0.00 0.00
8:53 pm 20:53 Clear 50 10 39 3.9 66 66 S 8 13 30.07 1018 10 16 0.00 0.00
9:53 pm 21:53 Clear 47 8.3 39 3.9 74 74 S 7 11 30.07 1018 10 16 0.00 0.00
10:53 pm 22:53 Clear 44 6.7 38 3.3 79 79 SSE 8 13 30.06 1018 10 16 0.00 0.00
11:53 pm 23:53 Clear 44 6.7 38 3.3 79 79 S 7 11 30.04 1017 10 16 0.00 0.00

Powered by AerisWeather